[[{"header":{"parameterUnit":"m.s-1","parameterCategory":1,"la1":30.2991,"la2":30.254,"lo1":-89.0895,"lo2":-89.0444,"dy":0.0017,"dx":0.0017,"nx":28,"ny":28,"refTime":"2023-08-28T09:00:00:Z","depth":0,"parameterNumber":2,"parameterNumberName":"U-component_of_WINDS"},"data":[0,0,0,0,0,0,0,0,0,0,0,0,0,0,0,0,0,0,0,0,0,0,0,0,0,0,0,0,0,0,0,0,0,0,0,0,0,0,0,0,0,0,0,0,0,0,0,0,0,0,0,0,0,0,0,0,0,0,-1.4688,-1.469,0,-1.4822,-1.4823,-1.4825,-1.4849,-1.4848,-1.4846,-1.4845,-1.4977,-1.4981,-1.4986,0,0,0,0,0,0,0,0,0,0,0,0,0,-1.4452,-1.4456,-1.4688,-1.469,-1.4692,-1.4822,-1.4823,-1.4825,-1.4849,-1.4848,-1.4846,-1.4845,-1.4976,-1.4981,-1.4986,0,0,0,0,0,0,0,0,0,0,0,0,0,-1.4567,-1.4457,-1.4688,-1.4719,-1.4723,-1.4821,-1.4824,-1.4826,-1.4849,-1.4847,-1.4846,-1.4844,-1.4974,-1.498,-1.4987,-1.5062,0,0,-1.5008,-1.5011,0,0,0,0,0,0,0,0,-1.456,-1.4575,-1.4713,-1.4717,-1.4722,-1.4817,-1.4788,-1.4905,-1.485,-1.4801,-1.4845,-1.4844,-1.4925,-1.4935,-1.4964,-1.5068,-1.5073,-1.5008,-1.5012,-1.5015,-1.5017,0,0,0,0,0,0,0,-1.4552,-1.457,-1.4741,-1.4715,-1.4721,-1.4726,-1.474,-1.4811,-1.487,-1.4805,-1.4807,-1.4823,-1.4927,-1.4957,-1.4967,-1.5075,-1.5008,-1.5014,-1.5018,-1.5021,-1.5252,-1.5254,0,0,0,0,0,0,-1.4539,-1.4563,-1.4737,-1.4745,-1.4636,-1.4732,-1.4748,-1.4788,-1.487,-1.4881,-1.4824,-1.4824,-1.4947,-1.4959,-1.4972,-1.5068,-1.5015,-1.5022,-1.5026,-1.525,-1.5253,-1.5255,0,0,0,0,0,0,-1.4534,-1.4554,-1.4731,-1.4655,-1.4678,-1.4737,-1.4782,-1.4792,-1.4822,-1.4884,-1.4895,-1.4845,-1.4946,-1.4962,-1.5041,-1.5073,-1.5025,-1.5031,-1.5248,-1.5251,-1.5254,-1.5259,0,0,0,0,0,0,-1.4527,-1.4552,-1.4581,-1.4655,-1.4682,-1.4798,-1.4784,-1.4795,-1.4834,-1.4835,-1.4906,-1.4916,-1.4946,-1.5031,-1.5047,-1.5082,-1.5036,-1.5245,-1.5249,-1.5253,-1.5256,-1.5262,-1.5267,0,0,0,0,0,-1.4519,-1.4575,-1.4583,-1.4604,-1.472,-1.48,-1.4815,-1.485,-1.4837,-1.4867,-1.4908,-1.4914,-1.5067,-1.5038,-1.5058,-1.5094,-1.5243,-1.5248,-1.5253,-1.5254,-1.5261,-1.5267,0,0,0,0,0,0,-1.4501,-1.4585,-1.4595,-1.4677,-1.4732,-1.4804,-1.4843,-1.4855,-1.4913,-1.491,-1.4949,-1.4965,-1.5042,-1.5076,-1.5043,-1.5173,-1.5154,-1.5163,-1.5149,-1.5156,-1.5161,-1.5152,-1.5042,0,0,0,0,0,-1.4507,-1.4567,-1.4637,-1.4703,-1.473,-1.4782,-1.4818,-1.484,-1.4898,-1.492,-1.4966,-1.502,-1.5081,-1.512,-1.5179,-1.5261,-1.5279,-1.5296,-1.5302,-1.5306,-1.5313,-1.5363,-1.5373,-1.527,-1.527,-1.527,0,0,-1.4519,-1.4573,-1.4608,-1.4701,-1.4746,-1.4807,-1.4801,-1.4864,-1.491,-1.4929,-1.5008,-1.5043,-1.5107,-1.5189,-1.5227,-1.5219,-1.5346,-1.5312,-1.5314,-1.532,-1.5369,-1.5379,-1.5387,-1.5274,-1.5273,-1.5272,0,0,-1.4574,-1.462,-1.4682,-1.4728,-1.4798,-1.4832,-1.4847,-1.4919,-1.4945,-1.5024,-1.5042,-1.5096,-1.5198,-1.5245,-1.5281,-1.5358,-1.5368,-1.5376,-1.5404,-1.5452,-1.5461,-1.5468,-1.5499,-1.5509,-1.5383,-1.5383,-1.5383,0,-1.458,-1.4674,-1.4712,-1.4777,-1.4818,-1.4842,-1.4906,-1.4948,-1.5032,-1.506,-1.505,-1.5184,-1.5227,-1.5322,-1.5342,-1.537,-1.5389,-1.5368,-1.5457,-1.5464,-1.5472,-1.5501,-1.5512,-1.5384,-1.5384,-1.5384,-1.5384,0,-1.468,-1.4745,-1.4787,-1.4871,-1.4917,-1.4981,-1.5029,-1.5071,-1.509,-1.5126,-1.5209,-1.5263,-1.5336,-1.5359,-1.5377,-1.5458,-1.5452,-1.5449,-1.5431,-1.5482,-1.5511,-1.5522,-1.5385,-1.5385,-1.5384,-1.5384,0,0,-1.4725,-1.4833,-1.4848,-1.4889,-1.4969,-1.502,-1.5085,-1.5159,-1.5196,-1.5253,-1.5311,-1.54,-1.5399,-1.5441,-1.5464,-1.5506,-1.5569,-1.5499,-1.5501,-1.5512,-1.5666,-1.5669,-1.5681,-1.5575,-1.5578,-1.5579,-1.5661,0,-1.4791,-1.4912,-1.495,-1.505,-1.5112,-1.5137,-1.5195,-1.525,-1.5287,-1.5344,-1.5383,-1.5447,-1.544,-1.5466,-1.5509,-1.5552,-1.56,-1.5546,-1.563,-1.5633,-1.5615,-1.5696,-1.5698,-1.5773,-1.5672,-1.5674,-1.5676,0,-1.4884,-1.4948,-1.5055,-1.5132,-1.5159,-1.5211,-1.5284,-1.5338,-1.5402,-1.5426,-1.5475,-1.5496,-1.5567,-1.5545,-1.5644,-1.5607,-1.5644,-1.567,-1.5674,-1.5684,-1.5658,-1.571,-1.5797,-1.5809,-1.5693,-1.5692,-1.569,0,-1.491,-1.5022,-1.5102,-1.5136,-1.5226,-1.5262,-1.5301,-1.5364,-1.5408,-1.5471,-1.55,-1.5569,-1.5607,-1.5661,-1.5701,-1.5681,-1.5798,-1.5778,-1.5821,-1.582,-1.5845,-1.5843,-1.5941,-1.5865,-1.5865,-1.5865,-1.5865,0,-1.4981,-1.5046,-1.5116,-1.5165,-1.524,-1.5284,-1.5356,-1.5397,-1.5453,-1.5511,-1.5536,-1.559,-1.5638,-1.5699,-1.573,-1.581,-1.5826,-1.5848,-1.5856,-1.5847,-1.5845,-1.5872,-1.5869,-1.5868,-1.5867,-1.5867,-1.5866,0,-1.5023,-1.5072,-1.5161,-1.5241,-1.5263,-1.5315,-1.5383,-1.5433,-1.5471,-1.5545,-1.5564,-1.5624,-1.5697,-1.5743,-1.5834,-1.5856,-1.5944,-1.5949,-1.5923,-1.5927,-1.5969,-1.5965,-1.609,-1.6109,-1.6018,-1.6019,-1.6019,0,-1.5066,-1.5117,-1.5204,-1.5247,-1.5287,-1.5353,-1.5399,-1.5444,-1.549,-1.5571,-1.5611,-1.5686,-1.5749,-1.5865,-1.5916,-1.5987,-1.5996,-1.6035,-1.6006,-1.5997,-1.6,-1.5997,-1.6004,-1.6039,-1.604,-1.6041,-1.6041,0,-1.5138,-1.5161,-1.5226,-1.5302,-1.5356,-1.5417,-1.5478,-1.551,-1.5566,-1.5617,-1.5694,-1.5743,-1.5839,-1.5914,-1.5991,-1.6031,-1.6047,-1.605,-1.6064,-1.6056,-1.6041,-1.6053,-1.5938,-1.6047,-1.6046,-1.6046,-1.6046,-1.6045,-1.5183,-1.5232,-1.5303,-1.5376,-1.5427,-1.5484,-1.5536,-1.5583,-1.5648,-1.5732,-1.5754,-1.5835,-1.5902,-1.6007,-1.6049,-1.6114,-1.6108,-1.6127,-1.6133,-1.6138,-1.614,-1.6029,-1.6127,-1.6127,-1.6127,-1.6127,-1.6127,0,-1.5259,-1.5307,-1.5374,-1.546,-1.5519,-1.553,-1.5599,-1.5647,-1.5718,-1.578,-1.5843,-1.5933,-1.6007,-1.6066,-1.6143,-1.6183,-1.6192,-1.6202,-1.62,-1.621,-1.6139,-1.6121,-1.6193,-1.6193,-1.6193,-1.6193,-1.6193,-1.6193,-1.5306,-1.5391,-1.5422,-1.5533,-1.558,-1.5662,-1.57,-1.5754,-1.5804,-1.5904,-1.5967,-1.6006,-1.6068,-1.615,-1.6219,-1.6235,-1.6263,-1.6271,-1.6288,-1.6221,-1.6214,-1.6207,-1.619,-1.6276,-1.6277,-1.6354,-1.6355,-1.6355]},{"header":{"parameterUnit":"m.s-1","parameterCategory":1,"la1":30.2991,"la2":30.254,"lo1":-89.0895,"lo2":-89.0444,"dy":0.0017,"dx":0.0017,"nx":28,"ny":28,"refTime":"2023-08-28T09:00:00:Z","depth":0,"parameterNumber":3,"parameterNumberName":"V-component_of_WINDS"},"data":[0,0,0,0,0,0,0,0,0,0,0,0,0,0,0,0,0,0,0,0,0,0,0,0,0,0,0,0,0,0,0,0,0,0,0,0,0,0,0,0,0,0,0,0,0,0,0,0,0,0,0,0,0,0,0,0,0,0,-0.3305,-0.3305,0,-0.3285,-0.3285,-0.3285,-0.332,-0.3321,-0.3323,-0.3324,-0.3301,-0.3299,-0.3297,0,0,0,0,0,0,0,0,0,0,0,0,0,-0.3372,-0.337,-0.3305,-0.3305,-0.3305,-0.3285,-0.3285,-0.3284,-0.332,-0.3321,-0.3323,-0.3324,-0.3301,-0.3299,-0.3297,0,0,0,0,0,0,0,0,0,0,0,0,0,-0.3346,-0.337,-0.3305,-0.332,-0.3321,-0.3285,-0.3285,-0.3284,-0.332,-0.3321,-0.3323,-0.3325,-0.3302,-0.3299,-0.3297,-0.3245,0,0,-0.3289,-0.3288,0,0,0,0,0,0,0,0,-0.3348,-0.3344,-0.3318,-0.3319,-0.332,-0.3307,-0.33,-0.3271,-0.3319,-0.332,-0.3324,-0.3326,-0.3301,-0.3299,-0.3291,-0.3244,-0.3243,-0.3289,-0.3287,-0.3286,-0.3285,0,0,0,0,0,0,0,-0.3349,-0.3345,-0.3297,-0.3318,-0.3319,-0.3327,-0.3325,-0.3295,-0.3301,-0.332,-0.3323,-0.332,-0.3302,-0.3293,-0.3291,-0.3242,-0.3289,-0.3287,-0.3285,-0.3284,-0.3149,-0.3147,0,0,0,0,0,0,-0.335,-0.3346,-0.3298,-0.3297,-0.3339,-0.3324,-0.3322,-0.3309,-0.3301,-0.3302,-0.3318,-0.3322,-0.3297,-0.3294,-0.329,-0.3227,-0.3286,-0.3284,-0.3282,-0.3151,-0.3149,-0.3147,0,0,0,0,0,0,-0.3351,-0.3345,-0.3299,-0.3322,-0.3317,-0.3321,-0.3306,-0.3308,-0.3299,-0.33,-0.3301,-0.3309,-0.3298,-0.3294,-0.3256,-0.3227,-0.3282,-0.328,-0.3154,-0.3151,-0.3148,-0.3102,0,0,0,0,0,0,-0.3353,-0.3345,-0.3326,-0.3321,-0.3315,-0.3265,-0.3305,-0.3306,-0.3295,-0.3299,-0.3291,-0.3291,-0.3299,-0.3259,-0.3253,-0.3225,-0.3278,-0.3156,-0.3152,-0.3149,-0.3106,-0.3098,-0.3091,0,0,0,0,0,-0.3355,-0.3314,-0.3325,-0.3319,-0.3292,-0.3264,-0.326,-0.3271,-0.3293,-0.3273,-0.3273,-0.3292,-0.3231,-0.3255,-0.3248,-0.3219,-0.3158,-0.3153,-0.3149,-0.311,-0.31,-0.3091,0,0,0,0,0,0,-0.3315,-0.3314,-0.3326,-0.3283,-0.3273,-0.327,-0.3245,-0.326,-0.3244,-0.3248,-0.3261,-0.3259,-0.3218,-0.3214,-0.3241,-0.3167,-0.3198,-0.3192,-0.3171,-0.3161,-0.3153,-0.3155,-0.3276,0,0,0,0,0,-0.3302,-0.328,-0.3279,-0.3241,-0.3235,-0.3241,-0.3229,-0.3238,-0.3228,-0.3224,-0.3222,-0.3211,-0.319,-0.3175,-0.3156,-0.3106,-0.3104,-0.3082,-0.3074,-0.3068,-0.3062,-0.3035,-0.3024,-0.3132,-0.3132,-0.3132,0,0,-0.3273,-0.3269,-0.3254,-0.3233,-0.3226,-0.3202,-0.3237,-0.3211,-0.3192,-0.322,-0.3184,-0.3181,-0.317,-0.3126,-0.3106,-0.3122,-0.3032,-0.3062,-0.3057,-0.3055,-0.3029,-0.3019,-0.301,-0.3129,-0.3129,-0.313,0,0,-0.3208,-0.3204,-0.317,-0.3163,-0.3153,-0.3157,-0.3149,-0.3143,-0.3143,-0.3106,-0.3126,-0.3104,-0.3068,-0.3058,-0.3049,-0.2979,-0.2995,-0.2972,-0.2932,-0.2904,-0.2896,-0.2888,-0.2862,-0.2853,-0.2966,-0.2966,-0.2966,0,-0.3173,-0.3139,-0.3151,-0.3123,-0.3112,-0.3136,-0.3102,-0.3094,-0.3078,-0.3069,-0.3087,-0.3041,-0.3035,-0.2988,-0.2971,-0.2962,-0.2953,-0.2973,-0.2896,-0.2889,-0.2882,-0.2857,-0.2848,-0.2964,-0.2964,-0.2964,-0.2964,0,-0.3096,-0.3071,-0.3045,-0.3029,-0.3016,-0.2984,-0.2991,-0.2976,-0.2986,-0.2987,-0.2949,-0.2943,-0.2922,-0.2911,-0.2921,-0.2865,-0.2875,-0.2894,-0.2926,-0.2869,-0.2846,-0.2837,-0.296,-0.2961,-0.2961,-0.2962,0,0,-0.3006,-0.2997,-0.2987,-0.2979,-0.2969,-0.295,-0.2919,-0.2899,-0.2885,-0.2872,-0.2846,-0.2814,-0.2831,-0.282,-0.2829,-0.2805,-0.2748,-0.2827,-0.2827,-0.2812,-0.2685,-0.267,-0.2659,-0.2759,-0.2757,-0.2755,-0.2686,0,-0.2941,-0.2888,-0.2898,-0.2847,-0.2823,-0.2845,-0.2818,-0.2809,-0.2809,-0.2788,-0.2788,-0.2765,-0.279,-0.2784,-0.2761,-0.276,-0.2723,-0.2765,-0.2733,-0.2732,-0.2735,-0.2647,-0.2632,-0.2566,-0.2677,-0.2675,-0.2674,0,-0.2858,-0.2842,-0.2789,-0.2781,-0.2772,-0.2747,-0.2729,-0.2709,-0.2698,-0.27,-0.2687,-0.2699,-0.2667,-0.27,-0.2655,-0.2684,-0.2671,-0.2668,-0.2666,-0.2663,-0.2699,-0.2641,-0.2546,-0.2535,-0.266,-0.2661,-0.2662,0,-0.2796,-0.2762,-0.2725,-0.2718,-0.2709,-0.2691,-0.2686,-0.2677,-0.2663,-0.2647,-0.2638,-0.2618,-0.2607,-0.259,-0.2597,-0.262,-0.255,-0.2583,-0.255,-0.2549,-0.2534,-0.2535,-0.2434,-0.2527,-0.2527,-0.2527,-0.2527,0,-0.2722,-0.2688,-0.2697,-0.2675,-0.2636,-0.2648,-0.2609,-0.2607,-0.2598,-0.2575,-0.2592,-0.2569,-0.2579,-0.2556,-0.2561,-0.2523,-0.2518,-0.2517,-0.2519,-0.2515,-0.2515,-0.2507,-0.2512,-0.2524,-0.2525,-0.2525,-0.2526,0,-0.2647,-0.2652,-0.2613,-0.2607,-0.2605,-0.2577,-0.2572,-0.255,-0.2551,-0.252,-0.2514,-0.2516,-0.249,-0.2494,-0.2466,-0.2469,-0.2421,-0.2428,-0.2424,-0.2426,-0.2392,-0.2395,-0.2282,-0.2267,-0.237,-0.2369,-0.2368,0,-0.26,-0.2574,-0.2565,-0.255,-0.2544,-0.2521,-0.2507,-0.2517,-0.2502,-0.2486,-0.2466,-0.2442,-0.2423,-0.238,-0.2379,-0.2356,-0.2363,-0.2325,-0.236,-0.2357,-0.2361,-0.2363,-0.236,-0.2318,-0.2317,-0.2316,-0.2315,0,-0.2514,-0.2517,-0.2497,-0.2478,-0.2461,-0.2446,-0.2433,-0.242,-0.2428,-0.241,-0.2384,-0.2369,-0.234,-0.2315,-0.2294,-0.2288,-0.2302,-0.2304,-0.2295,-0.2291,-0.229,-0.2289,-0.2405,-0.2307,-0.2308,-0.2308,-0.2309,-0.2309,-0.245,-0.2428,-0.2418,-0.2395,-0.2386,-0.2372,-0.2351,-0.235,-0.2328,-0.2306,-0.2312,-0.2282,-0.227,-0.2244,-0.2235,-0.2211,-0.2225,-0.2212,-0.2209,-0.2206,-0.2201,-0.2294,-0.2208,-0.2208,-0.2208,-0.2208,-0.2209,0,-0.2365,-0.2359,-0.2338,-0.2318,-0.23,-0.2315,-0.2301,-0.2284,-0.2258,-0.2246,-0.2227,-0.2196,-0.2172,-0.2168,-0.2145,-0.2126,-0.2132,-0.212,-0.2121,-0.2119,-0.219,-0.22,-0.2115,-0.2115,-0.2115,-0.2115,-0.2115,-0.2115,-0.2318,-0.2281,-0.2282,-0.224,-0.2235,-0.2206,-0.2196,-0.2184,-0.2174,-0.2139,-0.2119,-0.2117,-0.2108,-0.2084,-0.2062,-0.2061,-0.2051,-0.2036,-0.2038,-0.2105,-0.2114,-0.2123,-0.2132,-0.2034,-0.2034,-0.1969,-0.1968,-0.1967]}]]